Location: Kra?nica
(53.4833°N, 14.6167°E)
Time: 21:43:54
(UTC+00:00)

Helios 1A Rocket - Pass Details

Date: 23 May 2024
Orbit: 520 x 543 km, 98.3° (Epoch: 20 June)

Event Time Altitude Azimuth Distance (km) Brightness Sun altitude
Exits shadow 00:10:19 25° 184° (S) 1,117 3.8 -14.3°
Maximum altitude 00:12:26 61° 257° (WSW) 613 2.9 -14.2°
Drops below altitude 10° 00:16:16 10° 339° (NNW) 1,794 6.2 -14.0°
Sets 00:18:24 0° 343° (NNW) 2,685 7.3 -13.9°
